Flag for Canada Weather past 2 weeks in Whistler, British Columbia, Canada

Now
57 °F

Refreshingly cool.


Feels Like: 53 °F
Forecast: 27 / 40 °F
Wind: 17 mph from Northwest

Location: Squamish Airport

Current Time: Feb 27, 2015 at 2:41:54 PM

Latest Report: Feb 27, 2015 at 2:00 PM


Visibility: N/A

Pressure: 29.83 "Hg

Humidity: 26%

Dew point: 22 °F

Location of WhistlerLocation

Historic Weather in Whistler — Graph

°F

Whistler temperature yesterday

Maximum temperature yesterday: 49 °F (at 1:00 PM)
Minimum temperature yesterday: 33 °F (at 6:00 AM)
Average temperature yesterday: 41 °F

Past Weeks' High & Low Weather Summary

 TemperatureHumidityPressure
High60 °F (Feb 21, 2:00 PM)100% (Feb 12, 4:00 PM)30.52 "Hg (Feb 12, 4:00 PM)
Low29 °F (Feb 22, 5:00 AM)20% (Feb 21, 2:00 PM)29.79 "Hg (Feb 27, 7:00 AM)
Average42 °F87%30.28 "Hg
* Reported Feb 12 1:00 PM — Feb 27 1:00 PM, Whistler, Weather by CustomWeather, © 2015

Note: Actual official high and low records may vary slightly from our data, if they occured in-between our weather recording intervals... More about our weather records

Advertising

Whistler weather history for previous 24 hours

 ConditionsComfort  
Time TempWeatherWind HumidityBarometerVisibility
1:00 PM
Fri, Feb 27
58 °FRefreshingly cool.15 mph25%29.83 "HgN/A
12:00 PM57 °FRefreshingly cool.16 mph27%29.83 "HgN/A
11:00 AM55 °FCool.14 mph32%29.83 "HgN/A
10:00 AM53 °FCool.13 mph43%29.81 "HgN/A
9:00 AM42 °FQuite cool.1 mph90%29.81 "HgN/A
8:00 AM37 °FChilly.3 mph100%29.80 "HgN/A
7:00 AM38 °FChilly.2 mph100%29.79 "HgN/A
6:00 AM39 °FChilly.3 mph99%29.80 "HgN/A
5:00 AM40 °FQuite cool.3 mph96%29.80 "HgN/A
4:00 AM40 °FQuite cool.3 mph98%29.82 "HgN/A
3:00 AM38 °FChilly.1 mph100%29.83 "HgN/A
2:00 AM41 °FQuite cool.2 mph100%29.84 "HgN/A
1:00 AM40 °FQuite cool.2 mph100%29.86 "HgN/A
12:00 AM41 °FQuite cool.No wind99%29.87 "HgN/A
11:00 PM
Thu, Feb 26
41 °FQuite cool.2 mph98%29.88 "HgN/A
10:00 PM42 °FQuite cool.No wind99%29.90 "HgN/A
9:00 PM42 °FQuite cool.No wind97%29.91 "HgN/A
8:00 PM42 °FQuite cool.1 mph93%29.93 "HgN/A
7:00 PM43 °FQuite cool.1 mph89%29.95 "HgN/A
6:00 PM45 °FQuite cool.1 mph86%29.96 "HgN/A
5:00 PM47 °FCool.1 mph74%29.98 "HgN/A
4:00 PM48 °FCool.2 mph70%30.00 "HgN/A
3:00 PM49 °FCool.3 mph67%30.02 "HgN/A
2:00 PM49 °FCool.2 mph66%30.06 "HgN/A
Weather by CustomWeather, © 2015

See weather overviewHow to use our weather pages